Regional Weather Roundup
Issued by NWS

Home | Current Version | Previous Version | Graphics & Text | Print | Product List | Glossary On
Versions: 1 2 3 4 5 6 7 8 9 10 11 12 13 14 15 16 17 18 19 20 21 22 23 24 25 26 27 28 29 30 31 32 33 34 35 36 37 38 39 40 41 42 43 44 45 46 47 48 49 50
000
ASUS43 KMPX 281910
RWRMN
WEATHER ROUNDUP FOR MINNESOTA
NATIONAL WEATHER SERVICE TWIN CITIES/CHANHASSEN MN
200 PM CDT THU AUG 28 2014


NOTE: "FAIR" INDICATES FEW OR NO CLOUDS BELOW 12,000 FEET WITH NO
SIGNIFICANT WEATHER AND/OR OBSTRUCTIONS TO VISIBILITY. N/A MEANS
CURRENT SKY AND/OR WEATHER CONDITIONS ARE NOT AVAILABLE.

MNZ060>063-068>070-282000-
   Twin Cities Metro

CITY           SKY/WX    TMP DP  RH WIND       PRES   REMARKS
TWIN CITIES    LGT RAIN  69  62  78 SE13      30.02F
ST PAUL        LGT RAIN  70  62  76 SE10      30.02F
CRYSTAL        CLOUDY    73  59  61 SE9       30.00F
BLAINE         CLOUDY    73  63  68 SE9       30.02
LAKEVILLE      RAIN      64  63  94 E6        30.02F
EDEN PRAIRIE   LGT RAIN  67  63  87 SE7       30.01F
SOUTH ST PAUL  DRIZZLE   69  61  76 SE5       30.02F
LAKE ELMO      PTSUNNY   70  61  73 SE8       30.04F
$$
MNZ001>005-007-008-013>017-022>024-027-028-282000-
   Northwest Minnesota

CITY           SKY/WX    TMP DP  RH WIND       PRES   REMARKS
BEMIDJI        PTSUNNY   67  60  77 SE10      30.00F
HALLOCK        PTSUNNY   75  66  73 S14       29.89F
ROSEAU         PTSUNNY   73  64  73 S16       29.94F
WARROAD        CLOUDY    66  63  88 S9        29.96F
THIEF RVR FALL CLOUDY    72  63  73 S9        29.95S
CROOKSTON      CLOUDY    72  64  78 S12       29.95S
FOSSTON        CLOUDY    70  61  73 SE10      29.97F
DETROIT LAKES  CLOUDY    72  61  68 S15       29.99F
MOORHEAD       CLOUDY    72  66  83 S10       29.95F
PARK RAPIDS    CLOUDY    72  58  61 SE15G22   30.00F
MAHNOMEN       CLOUDY    69  63  79 S6        29.97F
$$
MNZ006-009>011-018-025>026-282000-
   North Central Minnesota

CITY           SKY/WX    TMP DP  RH WIND       PRES   REMARKS
BAUDETTE       PTSUNNY   72  60  66 S13G18    29.98S
FLAG ISLAND    PTSUNNY   70  63  78 S13G18    29.95S
INTL FALLS     CLOUDY    73  60  63 VRB6      30.01F
WASKISH        CLOUDY    70  63  78 CALM      30.00F
BIG FORK       PTSUNNY   70  59  68 S7        30.03F
LONGVILLE      CLOUDY    72  63  73 SE6       30.01F
GRAND RAPIDS   CLOUDY    70  57  64 S9        30.03F
CRANE LAKE     PTSUNNY   72  54  53 S8        30.05F
ORR            MOSUNNY   73  52  46 CALM      30.01F
COOK           MOSUNNY   73  54  49 SW3       30.04F
WALKER         CLOUDY    69  61  76 SE6       30.00F
$$
MNZ012-019>021-037-282000-
   Northeast Minnesota

CITY           SKY/WX    TMP DP  RH WIND       PRES   REMARKS
DULUTH         MOSUNNY   71  55  56 S7        30.06F
ELY            MOSUNNY   72  52  49 S7        30.05F
HIBBING        CLOUDY    73  55  53 S8        30.05F
EVELETH        MOSUNNY   72  54  53 S9        30.06F
DULUTH HARBOR  MOSUNNY   66  57  72 NE8       30.06F
TWO HARBORS    MOSUNNY   70  54  56 SE5       30.05F
SILVER BAY     MOSUNNY   68  57  68 SE8       30.07S
GRAND MARAIS     N/A     64  58  80 CALM      30.09F
G MARAIS ARPRT SUNNY     64  52  63 S8        30.12S
$$
MNZ029>031-032-039>041-046>048-054>057-064-282000-
   West Central Minnesota

CITY           SKY/WX    TMP DP  RH WIND       PRES   REMARKS
FERGUS FALLS   CLOUDY    70  61  73 S10       29.97S
WHEATON        DRIZZLE   64  63  94 SE7       29.97F
MORRIS         CLOUDY    68  64  88 SE12      29.96F
ALEXANDRIA     LGT RAIN  68  63  84 SE8       30.00F
ELBOW LAKE     DRIZZLE   67  63  89 SE10      29.97F
WADENA         CLOUDY    70  61  73 SE8       29.99F
GLENWOOD       CLOUDY    70  61  73 SE9       29.99F
APPLETON       LGT RAIN  68  64  88 E9        29.95F
BENSON         LGT RAIN  66  64  94 SE7       29.97F
ORTONVILLE     LGT RAIN  66  63  88 SE8       29.94F
MADISON        RAIN      70  68  94 SE10      29.94F
WILLMAR        FAIR      66  63  88 SE12      29.99F
$$
MNZ033>034-036-042>043-049>051-058-059-282000-
   Central Minnesota

CITY           SKY/WX    TMP DP  RH WIND       PRES   REMARKS
ST CLOUD       CLOUDY    76  61  59 S13       30.00F
SAUK CENTRE    FAIR      72  61  68 SE12      29.99F
PAYNESVILLE    HVY RAIN  68  60  77 E10       29.99F
AITKIN         CLOUDY    73  61  64 SE12      30.02F
PINE RIVER     PTSUNNY   72  61  68 SE9       30.04F
BRAINERD       PTSUNNY   71  59  65 S12       30.02F
STAPLES        CLOUDY    70  57  64 SE10      30.00F
LONG PRAIRIE   FAIR      70  61  73 SE9       30.01F
LITTLE FALLS   PTSUNNY   73  59  60 SE10      30.01F
LITCHFIELD     RAIN      70  64  83 SE7       30.01S
BUFFALO        CLOUDY    70  60  70 E8        30.01F
MAPLE LAKE     CLOUDY    72  64  75 SE5       30.02S
$$
MNZ037-044-045-052-053-282000-
   East Central Minnesota

CITY           SKY/WX    TMP DP  RH WIND       PRES   REMARKS
PRINCETON      CLOUDY    75  63  64 SE8       30.02F
MORA           PTSUNNY   72  57  60 SE8       30.04F
CAMBRIDGE      PTSUNNY   75  61  60 SE9       30.01F
RUSH CITY      PTSUNNY   72  60  65 SE6       30.03F
MOOSE LAKE     PTSUNNY   72  57  60 S3        30.03F
HINCKLEY       MOCLDY    73  61  64 SE7       30.03F
CLOQUET        MOSUNNY   72  55  56 S7        30.05F
MCGREGOR       PTSUNNY   72  59  64 S8        30.04F
$$
MNZ071>073-080-081-089-090-097-098-282000-
   Southwest Minnesota

CITY           SKY/WX    TMP DP  RH WIND       PRES   REMARKS
MONTEVIDEO     RAIN      66  66 100 SE9       29.96F
GRANITE FALLS  LGT RAIN  66  65  97 E8        29.97F
CANBY          LGT RAIN  67  66  95 SE9       29.95S
MARSHALL       CLOUDY    66  63  88 SE12      29.93F
REDWOOD FALLS  LGT RAIN  66  64  93 E10       29.96F
OLIVIA         LGT RAIN  68  64  88 E9        29.97F
PIPESTONE      CLOUDY    68  66  94 SE8       29.93F
WINDOM         CLOUDY    70  64  83 SE10      29.95F
WORTHINGTON    CLOUDY    70  66  88 SE10      29.95F
JACKSON        CLOUDY    70  64  83 SE12      29.96F
TRACY          CLOUDY    67  66  95 E7        29.95F
SLAYTON        CLOUDY    67  66  96 CALM      29.95F
$$
MNZ065>067-074>077-082>085-091>093-282000-
   South Central Minnesota

CITY           SKY/WX    TMP DP  RH WIND       PRES   REMARKS
MANKATO        CLOUDY    70  63  78 SE14G21   29.98F
NEW ULM        PTSUNNY   66  66 100 E6        29.97F
ST JAMES       CLOUDY    72  66  83 E9        29.97F
FAIRMONT       CLOUDY    66  63  88 SE10G17   29.96F
GLENCOE        RAIN      66  61  85 E7        30.00F
FARIBAULT      DRIZZLE   70  63  78 SE9       30.01F
OWATONNA       DRIZZLE   66  64  94 SE7       30.01F
WASECA         RAIN      63  59  88 E12G17    30.01F
ALBERT LEA     LGT RAIN  64  64 100 SE10      29.99F
$$
MNZ078>079-086>088-094>096-282000-
   Southeast Minnesota

CITY           SKY/WX    TMP DP  RH WIND       PRES   REMARKS
ROCHESTER      LGT RAIN  65  62  90 SE10      30.05F
RED WING       LGT RAIN  70  64  83 SE6       30.02F
STANTON        LGT RAIN  67  64  87 E5        30.01F
DODGE CENTER   DRIZZLE   64  63  94 SE9       30.03F
WINONA         RAIN      70  64  83 SE8       30.05F
AUSTIN         LGT RAIN  64  63  94 SE9       30.01F
PRESTON        CLOUDY    64  64 100 CALM      30.05F
$$
ABBREVIATIONS USED IN REMARKS
   TC - TEMPERATURES IN CELSIUS
  WCI - WIND CHILL INDEX
   HX - HEAT INDEX
  VSB - VISIBILITY
$$


USA.gov is the U.S. government's official web portal to all federal, state and local government web resources and services.